#timestamp,LO_Frequency,Hit,StdDev 
1607428815.3,286046998.7,N
1607428835.2,286046999.1,N
1607428855.9,286047000.9,N
1607428875.7,286047000.7,N
1607428895.6,286047000.0,N
1607428915.4,286046999.8,N
1607428935.2,286047002.8,N
1607428955.1,286047002.8,N
1607428956.0,286047002.8,N
1607428975.8,286047002.7,N
1607428995.7,286047002.1,N
1607429015.5,286047002.3,N
1607429035.3,286046999.9,N
1607429055.2,286047001.1,N
1607429075.0,286047000.2,N
1607429075.9,286047000.2,N
1607429095.7,286047000.0,N
1607429115.6,286046998.8,N
1607429135.4,286047000.2,N
1607429155.3,286047002.4,N
1607429175.1,286046998.8,N
1607429195.8,286046998.2,N
1607429215.7,286046999.9,N
1607429235.5,286047001.3,N
1607429255.3,286047001.9,N
1607429275.2,286047000.4,N
1607429295.0,286046999.2,N
1607429295.9,286046999.2,N
1607429315.8,286047000.8,N
1607429335.6,286047002.5,N
1607429355.4,286047001.1,N
1607429375.3,286046997.9,N
1607429395.1,286047000.3,N
1607429415.9,286046999.3,N
1607429435.7,286046998.2,N
1607429455.5,286047002.4,N
1607429475.4,286047000.5,N
1607429495.2,286047001.9,N
1607429515.0,286047002.3,N
1607429515.9,286047002.3,N
1607429535.8,286047002.4,N
1607429555.6,286047000.1,N
1607429575.5,286047002.2,N
1607429595.3,286046998.2,N
1607429615.1,286047002.6,N
1607429635.9,286047002.2,N
1607429655.7,286047002.0,N
1607429675.5,286047001.3,N
1607429695.4,286047002.6,N
1607429715.2,286047001.7,N
1607429735.0,286046998.1,N
1607429736.0,286046998.1,N
1607429755.8,286046999.7,N
1607429775.6,286047002.2,N
1607429795.5,286046998.8,N
1607429815.3,286047001.9,N
1607429835.1,286047002.4,N
1607429855.9,286046998.9,N
1607429875.7,286046998.9,N
1607429895.6,286046997.7,N
1607429915.4,286046999.6,N
1607429935.2,286046997.0,N
1607429955.1,286047000.5,N
1607429956.0,286047000.5,N
1607429975.8,286046998.5,N
1607429995.6,286046999.5,N
1607430015.5,286046998.4,N
1607430035.3,286046998.8,N
1607430055.1,286046999.8,N
1607430075.9,286047002.1,N
1607430095.7,286046999.8,N
1607430115.6,286047002.2,N
1607430135.4,286047001.5,N
1607430155.2,286047000.5,N
1607430175.1,286047001.9,N
1607430176.0,286047001.9,N
1607430195.8,286047000.3,N
1607430215.7,286046999.0,N
1607430235.5,286047000.3,N
1607430255.3,286047000.7,N
1607430275.2,286047002.4,N
1607430295.0,286047000.2,N
1607430295.9,286047000.2,N
1607430315.8,286046999.7,N
1607430335.6,286047000.0,N
1607430355.4,286047001.9,N
1607430375.3,286047002.3,N
1607430395.1,286046999.8,N
1607430415.8,286047000.2,N
1607430435.7,286046998.2,N
1607430455.5,286047000.2,N
1607430475.4,286047001.3,N
1607430495.2,286047003.8,Y
1607430515.0,286047003.9,P
1607430515.9,286047003.9,N
1607430535.8,286047002.3,N
1607430555.6,286047000.5,N
1607430575.4,286047000.3,N
1607430595.3,286047001.7,N
1607430615.1,286047002.2,N
1607430635.9,286047002.3,N
1607430655.7,286047000.9,N
1607430675.5,286047002.6,N
1607430695.4,286047002.1,N
1607430715.2,286047002.5,N
1607430735.0,286047001.0,N
1607430735.9,286047001.0,N
1607430755.8,286046998.1,N
1607430775.6,286046998.4,N
1607430795.4,286047000.0,N
1607430815.3,286047002.7,N
1607430835.1,286047002.4,N
1607430855.9,286047001.6,N
1607430875.7,286047003.7,N
1607430895.5,286047003.8,N
1607430915.4,286047001.7,N
1607430935.2,286046999.7,N
1607430955.0,286047002.7,N
1607430955.9,286047002.7,N
1607430975.8,286047002.0,N
1607430995.6,286047001.8,N
1607431015.5,286047004.2,N
1607431035.3,286047003.9,N
1607431055.1,286047001.7,N
1607431075.9,286047004.2,N
1607431095.7,286047003.7,N
1607431115.5,286047003.9,N
1607431135.4,286047001.6,N
1607431155.2,286047003.9,N
1607431175.1,286047004.3,N
1607431176.0,286047004.3,N
1607431195.8,286047003.8,N
1607431215.6,286047001.7,N
1607431235.5,286047002.1,N
1607431255.3,286047003.3,N
1607431275.2,286047005.7,Y
1607431295.9,286046999.9,P
1607431315.7,286047001.4,N
1607431335.6,286047000.1,N
1607431355.4,286047004.2,Y
1607431375.2,286047002.1,P
1607431395.1,286047000.2,N
1607431396.0,286047000.2,N
1607431415.8,286046998.8,N
1607431435.7,286046998.2,N
1607431455.5,286046997.7,N
1607431475.3,286046995.1,Y
1607431495.2,286046995.2,P
1607431515.0,286046995.0,N
1607431515.9,286046995.0,N
1607431535.8,286046999.1,N
1607431555.6,286046995.3,N
1607431575.4,286046999.1,N
1607431595.3,286046999.0,N
1607431615.1,286046998.5,N
1607431635.8,286046999.3,N
1607431655.7,286046998.5,N
1607431675.5,286047002.8,N
1607431695.4,286046998.4,N
1607431715.2,286047002.8,N
1607431735.0,286047002.5,N
1607431735.9,286047002.5,N
1607431755.8,286046998.8,N
1607431775.6,286046997.4,N
1607431795.5,286046995.7,N
1607431815.3,286046998.0,N
1607431835.1,286046999.4,N
1607431855.9,286046994.9,N
1607431875.7,286046995.1,N
1607431895.5,286046999.6,N
1607431915.4,286046997.1,N
1607431935.6,286046999.4,N
1607431955.4,286046997.7,N
1607431975.3,286046997.7,N
1607431995.1,286046995.0,N
1607431996.0,286046995.0,N
1607432015.8,286046997.2,N
1607432035.7,286046997.4,N
1607432055.5,286046999.1,N
1607432075.3,286046999.0,N
1607432095.2,286046998.9,N
1607432115.0,286047000.8,N
1607432115.9,286047000.8,N
1607432135.8,286047000.6,N
1607432155.6,286047000.4,N
1607432175.4,286047000.8,N
1607432195.3,286047002.7,N
1607432215.1,286047001.4,N
1607432235.9,286047000.8,N
1607432255.7,286047000.0,N
1607432275.5,286047002.1,N
1607432295.4,286046999.6,N
1607432315.2,286046996.5,N
1607432335.0,286046999.2,N
1607432335.9,286046999.2,N
1607432355.8,286046999.6,N
1607432375.6,286046999.4,N
1607432395.5,286046999.1,N
